Alma, MI

11:06 AM EDT on October 16, 2019 (GMT -0400)
Gratiot Community

Weather History for KAMN - September, 2019

Change the Weather History Date:

Saturday, September 21, 2019

  Actual Average Record
Temperature  
Mean Temperature 72 °F -  
Max Temperature 84 °F 69 °F 92 °F (2017)
Min Temperature 59 °F 47 °F 31 °F (1991)
Cooling Degree Days 6    
Growing Degree Days 22 (Base 50)    
Moisture  
Dew Point 65 °F    
Average Humidity 80    
Maximum Humidity 96    
Minimum Humidity 56    
Precipitation  
Precipitation 0.00 in - - ()
Sea Level Pressure  
Sea Level Pressure 30.11 in    
Wind  
Wind Speed 3 mph (SSW)    
Max Wind Speed 14 mph    
Max Gust Speed 22 mph    
Visibility 8 miles    
Events Rain    
Averages and records for this station are not official NWS values.
T = Trace of Precipitation, MM = Missing Value Source: NWS Daily Summary

Daily Weather History Graph

Daily Weather History Graph

Search for Another Location

Airport or City:

Astronomy

Sep. 21, 2019 Rise Set
Actual Time 7:24 AM EDT 7:38 PM EDT
Civil Twilight 6:56 AM EDT 8:06 PM EDT
Nautical Twilight 6:22 AM EDT 8:40 PM EDT
Astronomical Twilight 5:48 AM EDT 9:14 PM EDT
Moon No Moon Rise 2:40 PM EDT (9/21)
Length of Visible Light 13h 10m
Length of Day
12h 13m
Waning Gibbous, 55% of the Moon is Illuminated
Sep 21
Waning Gibbous
Sep 21
Last Quarter
Sep 28
New
Oct 5
First Quarter
Oct 13
Full

Hourly Weather History & Observations

Time (EDT) Temp. Heat Index Dew Point Humidity Pressure Visibility Wind Dir Wind Speed Gust Speed Precip Events Conditions
12:15 AM 63.1 °F - 61.2 °F 93% 30.15 in 10.0 mi Calm Calm - N/A   Clear
12:38 AM 62.6 °F - 60.6 °F 93% 30.15 in 10.0 mi Calm Calm - N/A   Clear
12:56 AM 62.6 °F - 60.8 °F 94% 30.15 in 7.0 mi Calm Calm - N/A   Clear
1:15 AM 61.7 °F - 59.7 °F 93% 30.15 in 7.0 mi Calm Calm - N/A   Clear
1:16 AM 61.7 °F - 59.9 °F 94% 30.14 in 7.0 mi Calm Calm - N/A   Clear
1:35 AM 62.2 °F - 60.4 °F 94% 30.14 in 3.0 mi Calm Calm - N/A   Clear
1:59 AM 61.7 °F - 59.7 °F 93% 30.14 in 10.0 mi Calm Calm - N/A   Scattered Clouds
2:17 AM 62.2 °F - 60.4 °F 94% 30.15 in 7.0 mi Calm Calm - N/A   Scattered Clouds
2:35 AM 61.3 °F - 59.5 °F 94% 30.15 in 2.5 mi Calm Calm - N/A   Mostly Cloudy
2:55 AM 63.0 °F - 61.0 °F 93% 30.15 in 10.0 mi Calm Calm - N/A   Overcast
3:15 AM 62.6 °F - 60.4 °F 93% 30.14 in 7.0 mi Calm Calm - N/A   Mostly Cloudy
3:38 AM 61.9 °F - 60.1 °F 94% 30.14 in 5.0 mi Calm Calm - N/A   Scattered Clouds
3:56 AM 62.1 °F - 60.3 °F 94% 30.14 in 7.0 mi Calm Calm - N/A   Clear
4:15 AM 61.9 °F - 60.3 °F 94% 30.14 in 4.0 mi Calm Calm - N/A   Clear
4:16 AM 62.1 °F - 60.4 °F 94% 30.14 in 4.0 mi Calm Calm - N/A   Clear
4:35 AM 61.0 °F - 59.2 °F 94% 30.14 in 1.2 mi Calm Calm - N/A   Mist
4:36 AM 61.0 °F - 59.4 °F 94% 30.14 in 1.0 mi Calm Calm - N/A   Mist
4:59 AM 60.4 °F - 59.0 °F 95% 30.14 in 2.5 mi Calm Calm - N/A   Clear
5:17 AM 60.6 °F - 59.0 °F 94% 30.14 in 4.0 mi Calm Calm - N/A   Clear
5:35 AM 60.8 °F - 59.0 °F 94% 30.14 in 5.0 mi Calm Calm - N/A   Scattered Clouds
5:55 AM 60.4 °F - 58.8 °F 94% 30.15 in 3.0 mi Calm Calm - N/A   Clear
6:15 AM 59.9 °F - 58.1 °F 94% 30.15 in 3.0 mi Calm Calm - N/A   Mostly Cloudy
6:20 AM 60.3 °F - 59.0 °F 96% 30.15 in 4.0 mi Calm Calm - N/A   Mostly Cloudy
6:38 AM 60.8 °F - 59.0 °F 94% 30.15 in 7.0 mi Calm Calm - N/A   Overcast
6:56 AM 60.8 °F - 59.2 °F 94% 30.14 in 7.0 mi Calm Calm - N/A   Scattered Clouds
7:15 AM 60.8 °F - 59.2 °F 94% 30.14 in 5.0 mi Calm Calm - N/A   Clear
7:16 AM 60.8 °F - 59.2 °F 94% 30.15 in 5.0 mi Calm Calm - N/A   Clear
7:35 AM 61.3 °F - 59.9 °F 95% 30.15 in 3.0 mi Calm Calm - N/A   Clear
7:58 AM 61.9 °F - 60.4 °F 95% 30.15 in 4.0 mi Calm Calm - N/A   Clear
8:17 AM 63.5 °F - 61.9 °F 94% 30.15 in 5.0 mi Calm Calm - N/A   Clear
8:35 AM 65.5 °F - 63.5 °F 93% 30.15 in 5.0 mi Calm Calm - N/A   Clear
8:36 AM 65.5 °F - 63.5 °F 93% 30.15 in 5.0 mi Calm Calm - N/A   Clear
8:55 AM 67.3 °F - 64.4 °F 90% 30.15 in 7.0 mi South 3.5 mph - N/A   Clear
9:15 AM 69.3 °F - 64.8 °F 86% 30.15 in 7.0 mi South 3.5 mph - N/A   Clear
9:38 AM 71.1 °F - 65.3 °F 82% 30.15 in 10.0 mi South 5.8 mph - N/A   Clear
9:55 AM 72.7 °F - 66.2 °F 80% 30.15 in 10.0 mi South 5.8 mph - N/A   Clear
10:15 AM 73.9 °F - 66.6 °F 78% 30.15 in 10.0 mi SSW 6.9 mph - N/A   Clear
10:16 AM 74.1 °F - 66.6 °F 77% 30.15 in 10.0 mi SSW 8.1 mph - N/A   Clear
10:35 AM 75.4 °F - 67.1 °F 75% 30.14 in 10.0 mi SSW 6.9 mph - N/A   Clear
10:36 AM 75.4 °F - 67.1 °F 75% 30.14 in 10.0 mi SSW 6.9 mph - N/A   Clear
10:59 AM 77.2 °F - 68.0 °F 73% 30.14 in 10.0 mi SSW 6.9 mph - N/A   Scattered Clouds
11:17 AM 77.4 °F - 67.5 °F 71% 30.14 in 10.0 mi South 5.8 mph - N/A   Scattered Clouds
11:35 AM 78.1 °F - 68.4 °F 72% 30.14 in 10.0 mi South 5.8 mph - N/A   Scattered Clouds
11:55 AM 79.7 °F - 69.1 °F 70% 30.13 in 10.0 mi SSW 8.1 mph - N/A   Clear
12:15 PM 81.1 °F 84.4 °F 69.4 °F 67% 30.12 in 7.0 mi SSW 6.9 mph - N/A   Clear
12:38 PM 82.4 °F 85.6 °F 68.5 °F 63% 30.12 in 10.0 mi SW 8.1 mph - N/A   Clear
12:56 PM 83.3 °F 86.2 °F 67.6 °F 59% 30.11 in 10.0 mi SW 5.8 mph - N/A   Clear
1:15 PM 82.9 °F 85.4 °F 66.7 °F 58% 30.11 in 10.0 mi SW 8.1 mph - N/A   Clear
1:35 PM 83.8 °F 86.5 °F 67.1 °F 57% 30.11 in 10.0 mi SW 13.8 mph - N/A   Mostly Cloudy
1:59 PM 84.6 °F 87.4 °F 67.5 °F 56% 30.11 in 10.0 mi SW 11.5 mph 16.1 mph N/A   Mostly Cloudy
2:17 PM 83.5 °F 86.4 °F 67.6 °F 59% 30.10 in 10.0 mi SW 9.2 mph 17.3 mph N/A   Mostly Cloudy
2:35 PM 83.7 °F 86.0 °F 66.2 °F 56% 30.10 in 10.0 mi WSW 11.5 mph - N/A   Overcast
2:55 PM 82.6 °F 85.1 °F 66.7 °F 59% 30.09 in 10.0 mi SW 11.5 mph 16.1 mph N/A   Mostly Cloudy
2:56 PM 82.6 °F 84.9 °F 66.4 °F 58% 30.09 in 10.0 mi SW 12.7 mph 16.1 mph N/A   Mostly Cloudy
3:15 PM 82.8 °F 84.7 °F 65.8 °F 56% 30.09 in 10.0 mi WSW 12.7 mph 21.9 mph N/A   Mostly Cloudy
3:20 PM 82.8 °F 85.3 °F 66.9 °F 59% 30.09 in 10.0 mi WSW 13.8 mph 21.9 mph N/A   Mostly Cloudy
3:38 PM 82.8 °F 84.9 °F 66.0 °F 57% 30.09 in 10.0 mi WSW 9.2 mph 16.1 mph N/A   Scattered Clouds
3:56 PM 82.4 °F 84.8 °F 66.7 °F 59% 30.08 in 10.0 mi WSW 9.2 mph 18.4 mph N/A   Scattered Clouds
4:15 PM 81.7 °F 83.6 °F 65.8 °F 58% 30.08 in 10.0 mi WSW 12.7 mph 18.4 mph N/A   Scattered Clouds
4:35 PM 80.2 °F 82.3 °F 66.2 °F 62% 30.07 in 10.0 mi WSW 5.8 mph - N/A   Clear
4:36 PM 80.2 °F 82.3 °F 66.2 °F 62% 30.07 in 10.0 mi SW 5.8 mph - N/A   Clear
4:59 PM 80.1 °F 82.2 °F 66.6 °F 63% 30.07 in 10.0 mi WSW 4.6 mph - N/A   Scattered Clouds
5:17 PM 79.9 °F - 67.5 °F 66% 30.07 in 10.0 mi WSW 3.5 mph - N/A   Mostly Cloudy
5:35 PM 79.7 °F - 68.0 °F 67% 30.07 in 10.0 mi SW 5.8 mph - N/A   Mostly Cloudy
5:55 PM 79.3 °F - 66.6 °F 65% 30.06 in 10.0 mi SW 10.4 mph - N/A   Mostly Cloudy
6:15 PM 78.8 °F - 66.2 °F 65% 30.06 in 10.0 mi SW 6.9 mph - N/A   Scattered Clouds
6:20 PM 78.4 °F - 66.2 °F 66% 30.06 in 10.0 mi SW 8.1 mph - N/A   Scattered Clouds
6:38 PM 77.9 °F - 66.7 °F 68% 30.05 in 10.0 mi SSW 5.8 mph - N/A   Clear
6:56 PM 77.4 °F - 67.1 °F 71% 30.05 in 10.0 mi South 4.6 mph - N/A   Scattered Clouds
7:15 PM 76.5 °F - 67.5 °F 74% 30.05 in 10.0 mi South 5.8 mph - N/A   Scattered Clouds
7:35 PM 76.3 °F - 68.2 °F 76% 30.04 in 10.0 mi South 4.6 mph - N/A   Clear
7:59 PM 75.9 °F - 68.2 °F 77% 30.05 in 10.0 mi South 4.6 mph - N/A   Scattered Clouds
8:17 PM 75.2 °F - 68.5 °F 80% 30.05 in 10.0 mi South 5.8 mph - N/A   Scattered Clouds
8:35 PM 74.7 °F - 68.5 °F 81% 30.05 in 10.0 mi South 6.9 mph - N/A   Scattered Clouds
8:36 PM 74.7 °F - 68.5 °F 81% 30.05 in 10.0 mi South 8.1 mph - N/A   Scattered Clouds
8:55 PM 75.2 °F - 68.4 °F 79% 30.05 in 10.0 mi South 5.8 mph - N/A   Mostly Cloudy
8:56 PM 75.2 °F - 68.4 °F 79% 30.05 in 10.0 mi South 5.8 mph - N/A   Mostly Cloudy
9:15 PM 75.2 °F - 68.7 °F 80% 30.06 in 10.0 mi South 5.8 mph - N/A   Overcast
9:19 PM 75.2 °F - 68.7 °F 80% 30.06 in 10.0 mi South 6.9 mph - N/A   Overcast
9:38 PM 74.7 °F - 68.9 °F 82% 30.06 in 10.0 mi South 8.1 mph - N/A   Light Drizzle
9:56 PM 74.7 °F - 68.9 °F 82% 30.06 in 10.0 mi SSW 5.8 mph - N/A   Overcast
10:15 PM 74.3 °F - 68.9 °F 83% 30.06 in 10.0 mi South 4.6 mph - N/A Rain Rain
10:35 PM 73.6 °F - 69.3 °F 86% 30.06 in 10.0 mi South 5.8 mph - N/A   Drizzle
10:36 PM 73.6 °F - 69.3 °F 86% 30.05 in 10.0 mi South 5.8 mph - N/A Rain Rain
10:59 PM 72.9 °F - 69.1 °F 88% 30.04 in 10.0 mi South 6.9 mph - N/A   Mostly Cloudy
11:17 PM 73.6 °F - 68.4 °F 84% 30.04 in 10.0 mi South 6.9 mph - N/A   Overcast
11:35 PM 73.6 °F - 68.0 °F 83% 30.03 in 10.0 mi South 6.9 mph - N/A   Overcast
11:36 PM 73.6 °F - 68.0 °F 83% 30.03 in 10.0 mi South 6.9 mph - N/A   Overcast
11:55 PM 73.2 °F - 67.6 °F 83% 30.03 in 10.0 mi South 4.6 mph - N/A   Overcast
11:56 PM 73.2 °F - 67.6 °F 83% 30.03 in 10.0 mi South 4.6 mph - N/A   Overcast